Location: Newark
(41.5333°N, 14.5500°E)
Time: 01:34:10
(UTC+00:00)

Hubble Space Telescope - Pass Details

Date: 02 February 2020
Orbit: 536 x 540 km, 28.5° (Epoch: 16 February)

Event Time Altitude Azimuth Distance (km) Brightness Sun altitude
Exits shadow 05:04:46 - 224° (SW) 2,261 3.6 -13.1°
Reaches altitude 10° 05:06:47 10° 204° (SSW) 1,776 3.3 -12.7°
Maximum altitude 05:08:40 13° 176° (S) 1,601 3.4 -12.4°
Drops below altitude 10° 05:10:32 10° 149° (SSE) 1,777 4.1 -12.0°
Sets 05:13:53 0° 121° (ESE) 2,668 5.9 -11.4°
